,,,PA_Meas_PMT16A,,PR_Meas_QMR101_102,,RH_Meas_QMH101,,SR_Meas_QMS101,,TA_Meas_QMH101,,GenWind,,GenWind,
date,time,status,PA,status,PR,status,RH,status,SR,status,TA,status,DirAvg,status,SpdAvg,
2009-09-20, 00:00:05,VALID,1013.2,VALID,0,VALID,97.9528,VALID,0,VALID,23.9668,VALID,2,VALID,0,
2009-09-20, 00:01:05,VALID,1013.16,VALID,0,VALID,97.9604,VALID,0,VALID,23.9863,VALID,1,VALID,0,
2009-09-20, 00:02:05,VALID,1013.15,VALID,0,VALID,98.0291,VALID,0,VALID,24.0058,VALID,1,VALID,0.228516,
2009-09-20, 00:03:05,VALID,1013.16,VALID,0,VALID,98.0901,VALID,0,VALID,24.0271,VALID,1,VALID,0,
2009-09-20, 00:04:05,VALID,1013.15,VALID,0,VALID,98.1206,VALID,0,VALID,24.0253,VALID,1,VALID,0,
2009-09-20, 00:05:05,VALID,1013.16,VALID,0,VALID,98.1816,VALID,0,VALID,24.0253,VALID,1,VALID,0,
2009-09-20, 00:06:05,VALID,1013.18,VALID,0,VALID,98.1968,VALID,0,VALID,24.0271,VALID,1,VALID,0,
2009-09-20, 00:07:05,VALID,1013.16,VALID,0,VALID,98.1816,VALID,0,VALID,24.0271,VALID,1,VALID,0,
2009-09-20, 00:08:05,VALID,1013.18,VALID,0,VALID,98.1587,VALID,0,VALID,24.0076,VALID,1,VALID,0.117969,
2009-09-20, 00:09:05,VALID,1013.18,VALID,0,VALID,98.174,VALID,0,VALID,24.0076,VALID,1,VALID,0.127734,
2009-09-20, 00:10:05,VALID,1013.16,VALID,0,VALID,98.1663,VALID,0,VALID,24.0076,VALID,1,VALID,0.167187,
2009-09-20, 00:11:05,VALID,1013.17,VALID,0,VALID,98.2045,VALID,0,VALID,24.0271,VALID,1,VALID,0.164063,
2009-09-20, 00:12:05,VALID,1013.17,VALID,0,VALID,98.2121,VALID,0,VALID,24.0076,VALID,1,VALID,0.398047,
2009-09-20, 00:13:05,VALID,1013.16,VALID,0,VALID,98.2197,VALID,0,VALID,24.0058,VALID,88,VALID,0.562109,
2009-09-20, 00:14:05,VALID,1013.18,VALID,0,VALID,98.1892,VALID,0.105969,VALID,24.004,VALID,91,VALID,0.605469,
2009-09-20, 00:15:05,VALID,1013.16,VALID,0,VALID,98.1206,VALID,0.105969,VALID,24.0643,VALID,91,VALID,0.430078,
2009-09-20, 00:16:05,VALID,1013.15,VALID,0,VALID,98.0672,VALID,0.105969,VALID,24.0643,VALID,91,VALID,0.351953,
2009-09-20, 00:17:05,VALID,1013.12,VALID,0,VALID,98.0214,VALID,0.105969,VALID,24.0429,VALID,86,VALID,0.25,
2009-09-20, 00:18:05,VALID,1013.09,VALID,0,VALID,97.9528,VALID,0,VALID,24.0643,VALID,86,VALID,0.374609,
2009-09-20, 00:19:05,VALID,1013.08,VALID,0,VALID,97.9147,VALID,0.105969,VALID,24.0643,VALID,85,VALID,0.346875,
2009-09-20, 00:20:05,VALID,1013.05,VALID,0,VALID,97.8842,VALID,0.105969,VALID,24.0643,VALID,78,VALID,0.407031,
2009-09-20, 00:21:05,VALID,1013.05,VALID,0,VALID,97.8384,VALID,0,VALID,24.0429,VALID,77,VALID,0.469531,
2009-09-20, 00:22:05,VALID,1013.06,VALID,0,VALID,97.8079,VALID,0,VALID,24.0643,VALID,77,VALID,0.323828,
2009-09-20, 00:23:05,VALID,1013.03,VALID,0,VALID,97.8003,VALID,0,VALID,24.0448,VALID,77,VALID,0,
2009-09-20, 00:24:05,VALID,1013.02,VALID,0,VALID,97.8003,VALID,0.105969,VALID,24.0448,VALID,77,VALID,0,
2009-09-20, 00:25:05,VALID,1013,VALID,0,VALID,97.8155,VALID,0.105969,VALID,24.0253,VALID,77,VALID,0,
2009-09-20, 00:26:05,VALID,1013,VALID,0,VALID,97.8155,VALID,0.105969,VALID,24.0253,VALID,77,VALID,0,
2009-09-20, 00:27:05,VALID,1012.98,VALID,0,VALID,97.8232,VALID,0,VALID,23.9845,VALID,77,VALID,0,
2009-09-20, 00:28:05,VALID,1012.97,VALID,0,VALID,97.8155,VALID,0,VALID,24.0058,VALID,77,VALID,0,
2009-09-20, 00:29:05,VALID,1012.96,VALID,0,VALID,97.8613,VALID,0,VALID,23.9863,VALID,77,VALID,0,
2009-09-20, 00:30:05,VALID,1012.92,VALID,0,VALID,97.8842,VALID,0.105969,VALID,23.9845,VALID,77,VALID,0,
2009-09-20, 00:31:05,VALID,1012.88,VALID,0,VALID,97.9147,VALID,0,VALID,24.0076,VALID,77,VALID,0,
2009-09-20, 00:32:05,VALID,1012.87,VALID,0,VALID,97.9147,VALID,0.105969,VALID,23.9863,VALID,77,VALID,0,
2009-09-20, 00:33:05,VALID,1012.84,VALID,0,VALID,97.9299,VALID,0,VALID,23.9668,VALID,77,VALID,0,
2009-09-20, 00:34:05,VALID,1012.83,VALID,0,VALID,97.9604,VALID,0.105969,VALID,23.9668,VALID,77,VALID,0,
2009-09-20, 00:35:05,VALID,1012.82,VALID,0,VALID,97.9833,VALID,0.105969,VALID,23.926,VALID,77,VALID,0,
2009-09-20, 00:36:05,VALID,1012.8,VALID,0,VALID,97.9681,VALID,0.105969,VALID,23.9065,VALID,77,VALID,0,
2009-09-20, 00:37:05,VALID,1012.82,VALID,0,VALID,97.9909,VALID,0,VALID,23.9084,VALID,77,VALID,0,
2009-09-20, 00:38:05,VALID,1012.8,VALID,0,VALID,98.0291,VALID,0,VALID,23.9084,VALID,77,VALID,0,
2009-09-20, 00:39:05,VALID,1012.81,VALID,0,VALID,98.0443,VALID,0,VALID,23.8871,VALID,77,VALID,0,
2009-09-20, 00:40:05,VALID,1012.81,VALID,0,VALID,98.0672,VALID,0,VALID,23.8676,VALID,77,VALID,0,
2009-09-20, 00:41:05,VALID,1012.81,VALID,0,VALID,98.1053,VALID,0.105969,VALID,23.8871,VALID,77,VALID,0,
2009-09-20, 00:42:05,VALID,1012.76,VALID,0,VALID,98.1129,VALID,0.105969,VALID,23.8889,VALID,77,VALID,0,
2009-09-20, 00:43:05,VALID,1012.75,VALID,0,VALID,98.1892,VALID,0.105969,VALID,23.8889,VALID,72,VALID,0,
2009-09-20, 00:44:05,VALID,1012.74,VALID,0,VALID,98.2502,VALID,0,VALID,23.8712,VALID,5,VALID,0,
2009-09-20, 00:45:05,VALID,1012.74,VALID,0,VALID,98.2807,VALID,0,VALID,23.8499,VALID,5,VALID,0,
2009-09-20, 00:46:05,VALID,1012.72,VALID,0,VALID,98.3036,VALID,0,VALID,23.8304,VALID,8,VALID,0,
2009-09-20, 00:47:05,VALID,1012.68,VALID,0,VALID,98.3417,VALID,0,VALID,23.8322,VALID,8,VALID,0,
2009-09-20, 00:48:05,VALID,1012.69,VALID,0,VALID,98.3493,VALID,0,VALID,23.7914,VALID,350,VALID,0,
2009-09-20, 00:49:05,VALID,1012.65,VALID,0,VALID,98.3341,VALID,0,VALID,23.7932,VALID,350,VALID,0,
2009-09-20, 00:50:05,VALID,1012.65,VALID,0,VALID,98.3493,VALID,0,VALID,23.7738,VALID,350,VALID,0,
2009-09-20, 00:51:05,VALID,1012.65,VALID,0,VALID,98.3951,VALID,0,VALID,23.7543,VALID,350,VALID,0,
2009-09-20, 00:52:05,VALID,1012.65,VALID,0,VALID,98.4485,VALID,0,VALID,23.7135,VALID,350,VALID,0,
2009-09-20, 00:53:05,VALID,1012.65,VALID,0,VALID,98.4714,VALID,0,VALID,23.7135,VALID,350,VALID,0,
2009-09-20, 00:54:05,VALID,1012.64,VALID,0,VALID,98.4942,VALID,0,VALID,23.6958,VALID,350,VALID,0,
2009-09-20, 00:55:05,VALID,1012.64,VALID,0,VALID,98.5019,VALID,0,VALID,23.6763,VALID,350,VALID,0,
2009-09-20, 00:56:05,VALID,1012.68,VALID,0,VALID,98.5247,VALID,0,VALID,23.6763,VALID,350,VALID,0,
2009-09-20, 00:57:05,VALID,1012.66,VALID,0,VALID,98.5324,VALID,0,VALID,23.6356,VALID,350,VALID,0,
2009-09-20, 00:58:05,VALID,1012.66,VALID,0,VALID,98.5781,VALID,0,VALID,23.6356,VALID,350,VALID,0,
2009-09-20, 00:59:05,VALID,1012.65,VALID,0,VALID,98.6086,VALID,0.105969,VALID,23.6356,VALID,350,VALID,0,
2009-09-20, 01:00:05,VALID,1012.6,VALID,0,VALID,98.6391,VALID,0.105969,VALID,23.6143,VALID,350,VALID,0,
2009-09-20, 01:01:05,VALID,1012.59,VALID,0,VALID,98.662,VALID,0,VALID,23.655,VALID,335,VALID,0.00664063,
2009-09-20, 01:02:05,VALID,1012.54,VALID,0,VALID,98.6849,VALID,0.105969,VALID,23.6356,VALID,332,VALID,0.610547,
2009-09-20, 01:03:05,VALID,1012.51,VALID,0,VALID,98.7154,VALID,0.105969,VALID,23.6356,VALID,332,VALID,0.419531,
2009-09-20, 01:04:05,VALID,1012.5,VALID,0,VALID,98.7306,VALID,0.105969,VALID,23.6338,VALID,332,VALID,0.154687,
2009-09-20, 01:05:05,VALID,1012.48,VALID,0,VALID,98.7459,VALID,0.105969,VALID,23.6338,VALID,332,VALID,0.195313,
2009-09-20, 01:06:05,VALID,1012.48,VALID,0,VALID,98.7611,VALID,0.105969,VALID,23.6745,VALID,332,VALID,0.276172,
2009-09-20, 01:07:05,VALID,1012.47,VALID,0,VALID,98.7688,VALID,0.105969,VALID,23.6745,VALID,332,VALID,0.3875,
2009-09-20, 01:08:05,VALID,1012.46,VALID,0,VALID,98.784,VALID,0,VALID,23.6338,VALID,332,VALID,0.343359,
2009-09-20, 01:09:05,VALID,1012.47,VALID,0,VALID,98.8145,VALID,0,VALID,23.6745,VALID,332,VALID,0.0175781,
2009-09-20, 01:10:05,VALID,1012.45,VALID,0,VALID,98.784,VALID,0.105969,VALID,23.6727,VALID,332,VALID,0.251172,
2009-09-20, 01:11:05,VALID,1012.47,VALID,0,VALID,98.8069,VALID,0.105969,VALID,23.694,VALID,332,VALID,0.0222656,
2009-09-20, 01:12:05,VALID,1012.46,VALID,0,VALID,98.8221,VALID,0.105969,VALID,23.694,VALID,332,VALID,0,
2009-09-20, 01:13:05,VALID,1012.45,VALID,0,VALID,98.8069,VALID,0.105969,VALID,23.6727,VALID,332,VALID,0.00195313,
2009-09-20, 01:14:05,VALID,1012.44,VALID,0,VALID,98.8145,VALID,0,VALID,23.6958,VALID,332,VALID,0,
2009-09-20, 01:15:05,VALID,1012.41,VALID,0,VALID,98.8298,VALID,0,VALID,23.6958,VALID,332,VALID,0,
2009-09-20, 01:16:05,VALID,1012.41,VALID,0,VALID,98.8298,VALID,0,VALID,23.6958,VALID,332,VALID,0,
2009-09-20, 01:17:05,VALID,1012.4,VALID,0,VALID,98.8374,VALID,0,VALID,23.655,VALID,332,VALID,0,
2009-09-20, 01:18:05,VALID,1012.37,VALID,0,VALID,98.8145,VALID,0,VALID,23.6568,VALID,332,VALID,0,
2009-09-20, 01:19:05,VALID,1012.34,VALID,0,VALID,98.845,VALID,0,VALID,23.6568,VALID,332,VALID,0,
2009-09-20, 01:20:05,VALID,1012.32,VALID,0,VALID,98.8298,VALID,0,VALID,23.6568,VALID,332,VALID,0,
2009-09-20, 01:21:05,VALID,1012.32,VALID,0,VALID,98.8298,VALID,0,VALID,23.6373,VALID,332,VALID,0,
2009-09-20, 01:22:05,VALID,1012.29,VALID,0,VALID,98.8298,VALID,0,VALID,23.6373,VALID,332,VALID,0,
2009-09-20, 01:23:05,VALID,1012.28,VALID,0,VALID,98.845,VALID,0,VALID,23.6568,VALID,332,VALID,0,
2009-09-20, 01:24:05,VALID,1012.25,VALID,0,VALID,98.8603,VALID,0,VALID,23.6161,VALID,332,VALID,0,
2009-09-20, 01:25:05,VALID,1012.25,VALID,0,VALID,98.8526,VALID,0,VALID,23.6356,VALID,311,VALID,0.0777344,
2009-09-20, 01:26:05,VALID,1012.25,VALID,0,VALID,98.8679,VALID,0,VALID,23.6958,VALID,309,VALID,0,
2009-09-20, 01:27:05,VALID,1012.19,VALID,0,VALID,98.8603,VALID,0,VALID,23.694,VALID,309,VALID,0,
2009-09-20, 01:28:05,VALID,1012.16,VALID,0,VALID,98.8908,VALID,0,VALID,23.7135,VALID,309,VALID,0,
2009-09-20, 01:29:05,VALID,1012.13,VALID,0,VALID,98.8831,VALID,0,VALID,23.7135,VALID,309,VALID,0,
2009-09-20, 01:30:05,VALID,1012.1,VALID,0,VALID,98.8831,VALID,0,VALID,23.694,VALID,309,VALID,0,
2009-09-20, 01:31:05,VALID,1012.11,VALID,0,VALID,98.906,VALID,0,VALID,23.655,VALID,194,VALID,0,
2009-09-20, 01:32:05,VALID,1012.08,VALID,0,VALID,98.906,VALID,0,VALID,23.655,VALID,194,VALID,0,
2009-09-20, 01:33:05,VALID,1012.07,VALID,0,VALID,98.8984,VALID,0,VALID,23.6356,VALID,194,VALID,0,
2009-09-20, 01:34:05,VALID,1012.05,VALID,0,VALID,98.8908,VALID,0,VALID,23.6161,VALID,194,VALID,0,
2009-09-20, 01:35:05,VALID,1012.07,VALID,0,VALID,98.8755,VALID,0,VALID,23.6161,VALID,194,VALID,0,
2009-09-20, 01:36:05,VALID,1012.06,VALID,0,VALID,98.8679,VALID,0,VALID,23.6179,VALID,194,VALID,0,
2009-09-20, 01:37:05,VALID,1012.05,VALID,0,VALID,98.8679,VALID,0,VALID,23.5984,VALID,194,VALID,0,
2009-09-20, 01:38:05,VALID,1012.06,VALID,0,VALID,98.845,VALID,0.105969,VALID,23.5984,VALID,194,VALID,0,
2009-09-20, 01:39:05,VALID,1012.05,VALID,0,VALID,98.8221,VALID,0,VALID,23.5966,VALID,194,VALID,0,
2009-09-20, 01:40:05,VALID,1012.09,VALID,0,VALID,98.8374,VALID,0,VALID,23.6161,VALID,194,VALID,0,
2009-09-20, 01:41:05,VALID,1012.13,VALID,0,VALID,98.8221,VALID,0,VALID,23.6373,VALID,194,VALID,0,
2009-09-20, 01:42:05,VALID,1012.15,VALID,0,VALID,98.845,VALID,0,VALID,23.6161,VALID,194,VALID,0,
2009-09-20, 01:43:05,VALID,1012.17,VALID,0,VALID,98.8831,VALID,0,VALID,23.6568,VALID,194,VALID,0,
2009-09-20, 01:44:05,VALID,1012.17,VALID,0,VALID,98.8755,VALID,0.105969,VALID,23.655,VALID,194,VALID,0,
2009-09-20, 01:45:05,VALID,1012.16,VALID,0,VALID,98.8755,VALID,0.105969,VALID,23.655,VALID,194,VALID,0,
2009-09-20, 01:46:05,VALID,1012.13,VALID,0,VALID,98.8831,VALID,0.105969,VALID,23.6143,VALID,89,VALID,0,
2009-09-20, 01:47:05,VALID,1012.09,VALID,0,VALID,98.8679,VALID,0.105969,VALID,23.655,VALID,89,VALID,0.337109,
2009-09-20, 01:48:05,VALID,1012.06,VALID,0,VALID,98.8679,VALID,0.105969,VALID,23.6356,VALID,89,VALID,0.321094,
2009-09-20, 01:49:05,VALID,1012.02,VALID,0,VALID,98.8984,VALID,0,VALID,23.6356,VALID,89,VALID,0.326562,
2009-09-20, 01:50:05,VALID,1011.99,VALID,0,VALID,98.9442,VALID,0,VALID,23.6356,VALID,89,VALID,0.266016,
2009-09-20, 01:51:05,VALID,1011.97,VALID,0,VALID,98.9289,VALID,0.105969,VALID,23.5948,VALID,89,VALID,0.373828,
2009-09-20, 01:52:05,VALID,1012,VALID,0,VALID,98.9442,VALID,0.105969,VALID,23.6356,VALID,89,VALID,0.287891,
2009-09-20, 01:53:05,VALID,1012.03,VALID,0,VALID,98.9518,VALID,0,VALID,23.5948,VALID,14,VALID,0,
2009-09-20, 01:54:05,VALID,1012.01,VALID,0,VALID,98.9289,VALID,0.105969,VALID,23.6143,VALID,3,VALID,0,
2009-09-20, 01:55:05,VALID,1012.02,VALID,0,VALID,98.9442,VALID,0.105969,VALID,23.6143,VALID,355,VALID,0,
2009-09-20, 01:56:05,VALID,1012,VALID,0,VALID,98.9594,VALID,0.105969,VALID,23.6356,VALID,331,VALID,0,
2009-09-20, 01:57:05,VALID,1011.99,VALID,0,VALID,98.9365,VALID,0.105969,VALID,23.6143,VALID,9,VALID,0,
2009-09-20, 01:58:05,VALID,1011.97,VALID,0,VALID,98.9365,VALID,0.105969,VALID,23.6338,VALID,311,VALID,0.284375,
2009-09-20, 01:59:05,VALID,1011.93,VALID,0,VALID,98.9518,VALID,0.105969,VALID,23.6745,VALID,315,VALID,0.954687,
2009-09-20, 02:00:05,VALID,1011.91,VALID,0,VALID,98.967,VALID,0.105969,VALID,23.694,VALID,307,VALID,0.521875,
2009-09-20, 02:01:05,VALID,1011.9,VALID,0,VALID,98.9594,VALID,0.105969,VALID,23.7135,VALID,331,VALID,0.812109,
2009-09-20, 02:02:05,VALID,1011.88,VALID,0,VALID,98.9594,VALID,0,VALID,23.7135,VALID,339,VALID,0.766406,
2009-09-20, 02:03:05,VALID,1011.86,VALID,0,VALID,98.9594,VALID,0.105969,VALID,23.733,VALID,324,VALID,0.590625,
2009-09-20, 02:04:05,VALID,1011.85,VALID,0,VALID,98.9518,VALID,0,VALID,23.7312,VALID,315,VALID,0.0835937,
2009-09-20, 02:05:05,VALID,1011.83,VALID,0,VALID,98.9518,VALID,0.105969,VALID,23.7525,VALID,232,VALID,0,
2009-09-20, 02:06:05,VALID,1011.79,VALID,0,VALID,98.9442,VALID,0,VALID,23.7525,VALID,232,VALID,0,
2009-09-20, 02:07:05,VALID,1011.79,VALID,0,VALID,98.906,VALID,0.105969,VALID,23.7525,VALID,232,VALID,0,
2009-09-20, 02:08:05,VALID,1011.77,VALID,0,VALID,98.9137,VALID,0.105969,VALID,23.772,VALID,232,VALID,0,
2009-09-20, 02:09:05,VALID,1011.77,VALID,0,VALID,98.8679,VALID,0.105969,VALID,23.772,VALID,253,VALID,0,
2009-09-20, 02:10:05,VALID,1011.76,VALID,0,VALID,98.8603,VALID,0,VALID,23.772,VALID,7,VALID,0,
2009-09-20, 02:11:05,VALID,1011.77,VALID,0,VALID,98.8679,VALID,0.105969,VALID,23.7507,VALID,7,VALID,0,
2009-09-20, 02:12:05,VALID,1011.76,VALID,0,VALID,98.845,VALID,0,VALID,23.7525,VALID,3,VALID,0,
2009-09-20, 02:13:05,VALID,1011.74,VALID,0,VALID,98.8145,VALID,0,VALID,23.7507,VALID,3,VALID,0,
2009-09-20, 02:14:05,VALID,1011.71,VALID,0,VALID,98.7993,VALID,0,VALID,23.7525,VALID,3,VALID,0,
2009-09-20, 02:15:05,VALID,1011.68,VALID,0,VALID,98.8069,VALID,0.105969,VALID,23.7525,VALID,3,VALID,0,
2009-09-20, 02:16:05,VALID,1011.67,VALID,0,VALID,98.7993,VALID,0.105969,VALID,23.772,VALID,3,VALID,0,
2009-09-20, 02:17:05,VALID,1011.64,VALID,0,VALID,98.784,VALID,0,VALID,23.7525,VALID,3,VALID,0,
2009-09-20, 02:18:05,VALID,1011.62,VALID,0,VALID,98.7535,VALID,0,VALID,23.7525,VALID,3,VALID,0,
2009-09-20, 02:19:05,VALID,1011.61,VALID,0,VALID,98.7688,VALID,0.105969,VALID,23.733,VALID,3,VALID,0,
2009-09-20, 02:20:05,VALID,1011.61,VALID,0,VALID,98.7688,VALID,0,VALID,23.733,VALID,3,VALID,0,
2009-09-20, 02:21:05,VALID,1011.62,VALID,0,VALID,98.7611,VALID,0.105969,VALID,23.7135,VALID,3,VALID,0,
2009-09-20, 02:22:05,VALID,1011.63,VALID,0,VALID,98.7535,VALID,0,VALID,23.694,VALID,3,VALID,0,
2009-09-20, 02:23:05,VALID,1011.63,VALID,0,VALID,98.7306,VALID,0,VALID,23.6745,VALID,3,VALID,0,
2009-09-20, 02:24:05,VALID,1011.66,VALID,0,VALID,98.7611,VALID,0.105969,VALID,23.6532,VALID,3,VALID,0,
2009-09-20, 02:25:05,VALID,1011.68,VALID,0,VALID,98.7688,VALID,0.105969,VALID,23.655,VALID,3,VALID,0,
2009-09-20, 02:26:05,VALID,1011.67,VALID,0,VALID,98.784,VALID,0.105969,VALID,23.6356,VALID,3,VALID,0,
2009-09-20, 02:27:05,VALID,1011.66,VALID,0,VALID,98.784,VALID,0,VALID,23.6356,VALID,3,VALID,0,
2009-09-20, 02:28:05,VALID,1011.65,VALID,0,VALID,98.7993,VALID,0.105969,VALID,23.6161,VALID,3,VALID,0,
2009-09-20, 02:29:05,VALID,1011.66,VALID,0,VALID,98.7688,VALID,0.105969,VALID,23.5966,VALID,3,VALID,0,
2009-09-20, 02:30:05,VALID,1011.63,VALID,0,VALID,98.7916,VALID,0,VALID,23.5966,VALID,3,VALID,0,
2009-09-20, 02:31:05,VALID,1011.59,VALID,0,VALID,98.7535,VALID,0,VALID,23.5966,VALID,3,VALID,0,
2009-09-20, 02:32:05,VALID,1011.61,VALID,0,VALID,98.8221,VALID,0,VALID,23.5948,VALID,3,VALID,0,
2009-09-20, 02:33:05,VALID,1011.57,VALID,0,VALID,98.8298,VALID,0.105969,VALID,23.5966,VALID,3,VALID,0,
2009-09-20, 02:34:05,VALID,1011.6,VALID,0,VALID,98.8298,VALID,0,VALID,23.5753,VALID,3,VALID,0,
2009-09-20, 02:35:05,VALID,1011.59,VALID,0,VALID,98.8603,VALID,0,VALID,23.5771,VALID,3,VALID,0,
2009-09-20, 02:36:05,VALID,1011.57,VALID,0,VALID,98.845,VALID,0.105969,VALID,23.5753,VALID,3,VALID,0,
2009-09-20, 02:37:05,VALID,1011.58,VALID,0,VALID,98.8526,VALID,0.105969,VALID,23.5558,VALID,3,VALID,0,
2009-09-20, 02:38:05,VALID,1011.56,VALID,0,VALID,98.8526,VALID,0.105969,VALID,23.5753,VALID,3,VALID,0,
2009-09-20, 02:39:05,VALID,1011.58,VALID,0,VALID,98.8526,VALID,0.105969,VALID,23.5558,VALID,3,VALID,0,
2009-09-20, 02:40:05,VALID,1011.58,VALID,0,VALID,98.8755,VALID,0.105969,VALID,23.5558,VALID,3,VALID,0,
2009-09-20, 02:41:05,VALID,1011.55,VALID,0,VALID,98.8603,VALID,0.105969,VALID,23.5558,VALID,3,VALID,0,
2009-09-20, 02:42:04,VALID,1011.57,VALID,0,VALID,98.8755,VALID,0.105969,VALID,23.5558,VALID,3,VALID,0,
2009-09-20, 02:43:04,VALID,1011.52,VALID,0,VALID,98.8755,VALID,0.105969,VALID,23.5381,VALID,3,VALID,0,
2009-09-20, 02:44:04,VALID,1011.52,VALID,0,VALID,98.8679,VALID,0,VALID,23.5399,VALID,3,VALID,0,
2009-09-20, 02:45:04,VALID,1011.53,VALID,0,VALID,98.8755,VALID,0,VALID,23.5186,VALID,3,VALID,0,
2009-09-20, 02:46:04,VALID,1011.52,VALID,0,VALID,98.8603,VALID,0,VALID,23.4992,VALID,3,VALID,0,
2009-09-20, 02:47:04,VALID,1011.54,VALID,0,VALID,98.8603,VALID,0,VALID,23.5204,VALID,3,VALID,0,
2009-09-20, 02:48:04,VALID,1011.53,VALID,0,VALID,98.8603,VALID,0,VALID,23.5204,VALID,3,VALID,0,
2009-09-20, 02:49:04,VALID,1011.54,VALID,0,VALID,98.8679,VALID,0,VALID,23.5009,VALID,3,VALID,0,
2009-09-20, 02:50:04,VALID,1011.54,VALID,0,VALID,98.8603,VALID,0,VALID,23.5009,VALID,3,VALID,0,
2009-09-20, 02:51:04,VALID,1011.54,VALID,0,VALID,98.8984,VALID,0,VALID,23.5204,VALID,3,VALID,0,
2009-09-20, 02:52:04,VALID,1011.52,VALID,0,VALID,98.9518,VALID,0,VALID,23.4797,VALID,3,VALID,0,
2009-09-20, 02:53:04,VALID,1011.5,VALID,0,VALID,98.9594,VALID,0,VALID,23.4815,VALID,3,VALID,0,
2009-09-20, 02:54:04,VALID,1011.49,VALID,0,VALID,98.9747,VALID,0,VALID,23.4797,VALID,3,VALID,0,
2009-09-20, 02:55:04,VALID,1011.45,VALID,0,VALID,98.9747,VALID,0,VALID,23.4602,VALID,3,VALID,0,
2009-09-20, 02:56:04,VALID,1011.43,VALID,0,VALID,98.9594,VALID,0,VALID,23.4602,VALID,3,VALID,0,
2009-09-20, 02:57:04,VALID,1011.44,VALID,0,VALID,98.9747,VALID,0,VALID,23.4815,VALID,3,VALID,0,
2009-09-20, 02:58:04,VALID,1011.46,VALID,0,VALID,98.967,VALID,0,VALID,23.4815,VALID,3,VALID,0,
2009-09-20, 02:59:04,VALID,1011.46,VALID,0,VALID,98.9747,VALID,0,VALID,23.4602,VALID,3,VALID,0,
2009-09-20, 03:00:04,VALID,1011.49,VALID,0,VALID,98.9747,VALID,0.105969,VALID,23.4602,VALID,3,VALID,0,
2009-09-20, 03:01:04,VALID,1011.49,VALID,0,VALID,98.9823,VALID,0,VALID,23.4407,VALID,3,VALID,0,
2009-09-20, 03:02:04,VALID,1011.5,VALID,0,VALID,98.9823,VALID,0.105969,VALID,23.4407,VALID,3,VALID,0,
2009-09-20, 03:03:04,VALID,1011.51,VALID,0,VALID,98.9975,VALID,0.105969,VALID,23.4407,VALID,3,VALID,0,
2009-09-20, 03:04:04,VALID,1011.49,VALID,0,VALID,98.9975,VALID,0.105969,VALID,23.4212,VALID,3,VALID,0,
2009-09-20, 03:05:04,VALID,1011.48,VALID,0,VALID,98.9747,VALID,0,VALID,23.4017,VALID,3,VALID,0,
2009-09-20, 03:06:04,VALID,1011.49,VALID,0,VALID,99.0128,VALID,0.105969,VALID,23.3823,VALID,3,VALID,0,
2009-09-20, 03:07:04,VALID,1011.47,VALID,0,VALID,98.9975,VALID,0.105969,VALID,23.3823,VALID,3,VALID,0,
2009-09-20, 03:08:04,VALID,1011.47,VALID,0,VALID,98.9823,VALID,0.105969,VALID,23.361,VALID,3,VALID,0,
2009-09-20, 03:09:04,VALID,1011.47,VALID,0,VALID,98.9747,VALID,0.105969,VALID,23.3823,VALID,3,VALID,0,
2009-09-20, 03:10:04,VALID,1011.51,VALID,0,VALID,98.9823,VALID,0,VALID,23.3823,VALID,3,VALID,0,
2009-09-20, 03:11:04,VALID,1011.48,VALID,0,VALID,98.9899,VALID,0.105969,VALID,23.3823,VALID,3,VALID,0,
2009-09-20, 03:12:04,VALID,1011.52,VALID,0,VALID,98.9975,VALID,0,VALID,23.3628,VALID,3,VALID,0,
2009-09-20, 03:13:04,VALID,1011.52,VALID,0,VALID,98.9975,VALID,0.105969,VALID,23.3628,VALID,3,VALID,0,
2009-09-20, 03:14:04,VALID,1011.52,VALID,0,VALID,99.0128,VALID,0,VALID,23.3433,VALID,3,VALID,0,
2009-09-20, 03:15:04,VALID,1011.54,VALID,0,VALID,99.0204,VALID,0,VALID,23.3238,VALID,3,VALID,0,
2009-09-20, 03:16:04,VALID,1011.55,VALID,0,VALID,99.0204,VALID,0,VALID,23.3043,VALID,3,VALID,0,
2009-09-20, 03:17:04,VALID,1011.57,VALID,0,VALID,99.0128,VALID,0.105969,VALID,23.2848,VALID,3,VALID,0,
2009-09-20, 03:18:04,VALID,1011.53,VALID,0,VALID,99.0128,VALID,0.105969,VALID,23.2848,VALID,3,VALID,0,
2009-09-20, 03:19:04,VALID,1011.51,VALID,0,VALID,99.0357,VALID,0,VALID,23.3061,VALID,3,VALID,0,
2009-09-20, 03:20:04,VALID,1011.5,VALID,0,VALID,99.0204,VALID,0,VALID,23.2654,VALID,3,VALID,0,
2009-09-20, 03:21:04,VALID,1011.49,VALID,0,VALID,99.0204,VALID,0,VALID,23.2264,VALID,3,VALID,0,
2009-09-20, 03:22:04,VALID,1011.49,VALID,0,VALID,99.0357,VALID,0,VALID,23.2264,VALID,3,VALID,0,
2009-09-20, 03:23:04,VALID,1011.48,VALID,0,VALID,99.0204,VALID,0,VALID,23.2051,VALID,3,VALID,0,
2009-09-20, 03:24:04,VALID,1011.5,VALID,0,VALID,99.0052,VALID,0,VALID,23.2264,VALID,3,VALID,0,
2009-09-20, 03:25:04,VALID,1011.49,VALID,0,VALID,99.028,VALID,0,VALID,23.1857,VALID,3,VALID,0,
2009-09-20, 03:26:04,VALID,1011.5,VALID,0,VALID,99.028,VALID,0.105969,VALID,23.2069,VALID,3,VALID,0,
2009-09-20, 03:27:04,VALID,1011.48,VALID,0,VALID,99.0357,VALID,0.105969,VALID,23.2069,VALID,3,VALID,0,
2009-09-20, 03:28:04,VALID,1011.47,VALID,0,VALID,99.028,VALID,0.105969,VALID,23.2069,VALID,3,VALID,0,
2009-09-20, 03:29:04,VALID,1011.48,VALID,0,VALID,99.0204,VALID,0,VALID,23.2069,VALID,3,VALID,0,
2009-09-20, 03:30:04,VALID,1011.47,VALID,0,VALID,99.0357,VALID,0.105969,VALID,23.2069,VALID,3,VALID,0,
2009-09-20, 03:31:04,VALID,1011.48,VALID,0,VALID,99.0357,VALID,0.105969,VALID,23.2069,VALID,3,VALID,0,
2009-09-20, 03:32:04,VALID,1011.53,VALID,0,VALID,99.028,VALID,0.105969,VALID,23.2069,VALID,1,VALID,0,
2009-09-20, 03:33:04,VALID,1011.54,VALID,0,VALID,99.0509,VALID,0.105969,VALID,23.2087,VALID,360,VALID,0,
2009-09-20, 03:34:04,VALID,1011.57,VALID,0,VALID,99.0509,VALID,0,VALID,23.1874,VALID,360,VALID,0,
2009-09-20, 03:35:04,VALID,1011.58,VALID,0,VALID,99.0509,VALID,0.105969,VALID,23.2069,VALID,360,VALID,0,
2009-09-20, 03:36:04,VALID,1011.57,VALID,0,VALID,99.0433,VALID,0.105969,VALID,23.1857,VALID,360,VALID,0,
2009-09-20, 03:37:04,VALID,1011.56,VALID,0,VALID,99.0509,VALID,0,VALID,23.1662,VALID,360,VALID,0,
2009-09-20, 03:38:04,VALID,1011.55,VALID,0,VALID,99.028,VALID,0.105969,VALID,23.1874,VALID,360,VALID,0,
2009-09-20, 03:39:04,VALID,1011.53,VALID,0,VALID,99.0357,VALID,0.105969,VALID,23.2069,VALID,360,VALID,0,
2009-09-20, 03:40:04,VALID,1011.51,VALID,0,VALID,99.0357,VALID,0,VALID,23.1874,VALID,360,VALID,0,
2009-09-20, 03:41:04,VALID,1011.53,VALID,0,VALID,98.9975,VALID,0.105969,VALID,23.1857,VALID,360,VALID,0,
2009-09-20, 03:42:04,VALID,1011.55,VALID,0,VALID,98.9442,VALID,0.105969,VALID,23.2069,VALID,360,VALID,0,
2009-09-20, 03:43:04,VALID,1011.55,VALID,0,VALID,98.9594,VALID,0,VALID,23.2459,VALID,360,VALID,0,
2009-09-20, 03:44:04,VALID,1011.57,VALID,0,VALID,98.9518,VALID,0.105969,VALID,23.2654,VALID,360,VALID,0,
2009-09-20, 03:45:04,VALID,1011.56,VALID,0,VALID,98.9213,VALID,0,VALID,23.3238,VALID,360,VALID,0,
2009-09-20, 03:46:04,VALID,1011.58,VALID,0,VALID,98.9442,VALID,0,VALID,23.3451,VALID,360,VALID,0,
2009-09-20, 03:47:04,VALID,1011.57,VALID,0,VALID,98.9594,VALID,0,VALID,23.3628,VALID,360,VALID,0,
2009-09-20, 03:48:04,VALID,1011.58,VALID,0,VALID,99.0128,VALID,0,VALID,23.3823,VALID,360,VALID,0,
2009-09-20, 03:49:04,VALID,1011.57,VALID,0,VALID,99.0128,VALID,0,VALID,23.3823,VALID,360,VALID,0,
2009-09-20, 03:50:04,VALID,1011.55,VALID,0,VALID,99.0204,VALID,0,VALID,23.423,VALID,360,VALID,0,
2009-09-20, 03:51:04,VALID,1011.54,VALID,0,VALID,99.028,VALID,0,VALID,23.4212,VALID,360,VALID,0,
2009-09-20, 03:52:04,VALID,1011.54,VALID,0,VALID,98.9899,VALID,0,VALID,23.4602,VALID,360,VALID,0,